contact:dominique.lefevre@mio.osupytheas.fr, maurice.libes@osupytheas.fr, didier.mallarino@osupytheas.fr
Project:EMSO http://www.emso-fr.org/EMSO-France
Depth: 2436.0 m
Title:EMSO Ligure Ouest : Data MII capteur MICROCAT
DateTime_Computer,Latitude,Longitude,Temperature,Conductivity,Pressure,DateTime_Instrument
DateTime_Computer,Latitude,Longitude,degC,S m-1,dbar,DateTime_Instrument
2023-03-27T00:00:01Z,42.805,6.029,13.3021,4.60079,2470.717,2023-3-27T02:02:47Z
2023-03-27T00:03:04Z,42.805,6.029,13.3018,4.60079,2470.74,2023-3-27T02:05:50Z
2023-03-27T00:06:07Z,42.805,6.029,13.3021,4.60079,2470.707,2023-3-27T02:08:53Z
2023-03-27T00:09:10Z,42.805,6.029,13.3023,4.60080,2470.74,2023-3-27T02:11:56Z
2023-03-27T00:12:13Z,42.805,6.029,13.3017,4.60079,2470.693,2023-3-27T02:14:59Z
2023-03-27T00:15:16Z,42.805,6.029,13.3016,4.60079,2470.693,2023-3-27T02:18:02Z
2023-03-27T00:18:19Z,42.805,6.029,13.3021,4.60079,2470.707,2023-3-27T02:21:05Z
2023-03-27T00:21:22Z,42.805,6.029,13.3019,4.60079,2470.717,2023-3-27T02:24:08Z
2023-03-27T00:24:25Z,42.805,6.029,13.3015,4.60079,2470.707,2023-3-27T02:27:11Z
2023-03-27T00:27:28Z,42.805,6.029,13.3015,4.60079,2470.693,2023-3-27T02:30:14Z
2023-03-27T00:30:31Z,42.805,6.029,13.3017,4.60079,2470.74,2023-3-27T02:33:17Z
2023-03-27T00:33:34Z,42.805,6.029,13.3018,4.60079,2470.703,2023-3-27T02:36:20Z
2023-03-27T00:36:38Z,42.805,6.029,13.3017,4.60078,2470.693,2023-3-27T02:39:24Z
2023-03-27T00:39:41Z,42.805,6.029,13.3020,4.60080,2470.707,2023-3-27T02:42:27Z
2023-03-27T00:42:44Z,42.805,6.029,13.3017,4.60079,2470.693,2023-3-27T02:45:30Z
2023-03-27T00:45:47Z,42.805,6.029,13.3020,4.60079,2470.693,2023-3-27T02:48:33Z
2023-03-27T00:48:50Z,42.805,6.029,13.3019,4.60079,2470.67,2023-3-27T02:51:36Z
2023-03-27T00:51:53Z,42.805,6.029,13.3019,4.60079,2470.693,2023-3-27T02:54:39Z
2023-03-27T00:54:56Z,42.805,6.029,13.3019,4.60079,2470.693,2023-3-27T02:57:42Z
2023-03-27T00:57:59Z,42.805,6.029,13.3015,4.60079,2470.693,2023-3-27T03:00:45Z
2023-03-27T01:01:02Z,42.805,6.029,13.3018,4.60079,2470.67,2023-3-27T03:03:48Z
2023-03-27T01:04:05Z,42.805,6.029,13.3020,4.60079,2470.656,2023-3-27T03:06:51Z
2023-03-27T01:07:08Z,42.805,6.029,13.3019,4.60079,2470.73,2023-3-27T03:09:54Z
2023-03-27T01:10:11Z,42.805,6.029,13.3021,4.60079,2470.67,2023-3-27T03:12:57Z
2023-03-27T01:13:15Z,42.805,6.029,13.3019,4.60078,2470.717,2023-3-27T03:16:01Z
2023-03-27T01:16:18Z,42.805,6.029,13.3017,4.60079,2470.693,2023-3-27T03:19:04Z
2023-03-27T01:19:21Z,42.805,6.029,13.3015,4.60079,2470.693,2023-3-27T03:22:07Z
2023-03-27T01:22:24Z,42.805,6.029,13.3015,4.60078,2470.67,2023-3-27T03:25:10Z
2023-03-27T01:25:27Z,42.805,6.029,13.3021,4.60078,2470.67,2023-3-27T03:28:13Z
2023-03-27T01:28:30Z,42.805,6.029,13.3015,4.60078,2470.67,2023-3-27T03:31:16Z
2023-03-27T01:31:33Z,42.805,6.029,13.3015,4.60078,2470.684,2023-3-27T03:34:19Z
2023-03-27T01:34:36Z,42.805,6.029,13.3018,4.60079,2470.67,2023-3-27T03:37:22Z
2023-03-27T01:37:39Z,42.805,6.029,13.3018,4.60078,2470.67,2023-3-27T03:40:25Z
2023-03-27T01:40:42Z,42.805,6.029,13.3018,4.60078,2470.684,2023-3-27T03:43:28Z
2023-03-27T01:43:45Z,42.805,6.029,13.3024,4.60078,2470.67,2023-3-27T03:46:31Z
2023-03-27T01:46:48Z,42.805,6.029,13.3018,4.60079,2470.67,2023-3-27T03:49:34Z
2023-03-27T01:49:52Z,42.805,6.029,13.3018,4.60079,2470.67,2023-3-27T03:52:38Z
2023-03-27T01:52:55Z,42.805,6.029,13.3016,4.60079,2470.67,2023-3-27T03:55:41Z
2023-03-27T01:55:58Z,42.805,6.029,13.3020,4.60079,2470.661,2023-3-27T03:58:44Z
2023-03-27T01:59:01Z,42.805,6.029,13.3021,4.60079,2470.646,2023-3-27T04:01:47Z
2023-03-27T02:02:04Z,42.805,6.029,13.3021,4.60079,2470.67,2023-3-27T04:04:50Z
2023-03-27T02:05:07Z,42.805,6.029,13.3019,4.60079,2470.646,2023-3-27T04:07:53Z
2023-03-27T02:08:10Z,42.805,6.029,13.3016,4.60079,2470.661,2023-3-27T04:10:56Z
2023-03-27T02:11:13Z,42.805,6.029,13.3021,4.60079,2470.646,2023-3-27T04:13:59Z
2023-03-27T02:14:16Z,42.805,6.029,13.3015,4.60079,2470.646,2023-3-27T04:17:02Z
2023-03-27T02:17:19Z,42.805,6.029,13.3014,4.60078,2470.661,2023-3-27T04:20:05Z
2023-03-27T02:20:22Z,42.805,6.029,13.3018,4.60079,2470.67,2023-3-27T04:23:08Z
2023-03-27T02:23:25Z,42.805,6.029,13.3015,4.60079,2470.646,2023-3-27T04:26:11Z
2023-03-27T02:26:29Z,42.805,6.029,13.3021,4.60079,2470.646,2023-3-27T04:29:15Z
2023-03-27T02:29:32Z,42.805,6.029,13.3019,4.60079,2470.646,2023-3-27T04:32:18Z
2023-03-27T02:32:35Z,42.805,6.029,13.3017,4.60079,2470.637,2023-3-27T04:35:21Z
2023-03-27T02:35:38Z,42.805,6.029,13.3018,4.60078,2470.646,2023-3-27T04:38:24Z
2023-03-27T02:38:41Z,42.805,6.029,13.3015,4.60079,2470.637,2023-3-27T04:41:27Z
2023-03-27T02:41:44Z,42.805,6.029,13.3021,4.60079,2470.637,2023-3-27T04:44:30Z
2023-03-27T02:44:47Z,42.805,6.029,13.3019,4.60078,2470.67,2023-3-27T04:47:33Z
2023-03-27T02:47:50Z,42.805,6.029,13.3021,4.60079,2470.661,2023-3-27T04:50:36Z
2023-03-27T02:50:53Z,42.805,6.029,13.3019,4.60078,2470.646,2023-3-27T04:53:39Z
2023-03-27T02:53:56Z,42.805,6.029,13.3017,4.60079,2470.646,2023-3-27T04:56:42Z
2023-03-27T02:56:59Z,42.805,6.029,13.3020,4.60079,2470.637,2023-3-27T04:59:45Z
2023-03-27T03:00:02Z,42.805,6.029,13.3018,4.60079,2470.637,2023-3-27T05:02:48Z
2023-03-27T03:03:06Z,42.805,6.029,13.3016,4.60079,2470.661,2023-3-27T05:05:52Z
2023-03-27T03:06:09Z,42.805,6.029,13.3018,4.60079,2470.633,2023-3-27T05:08:55Z
2023-03-27T03:09:12Z,42.805,6.029,13.3019,4.60078,2470.646,2023-3-27T05:11:58Z
2023-03-27T03:12:15Z,42.805,6.029,13.3019,4.60079,2470.661,2023-3-27T05:15:01Z
2023-03-27T03:15:18Z,42.805,6.029,13.3020,4.60079,2470.661,2023-3-27T05:18:04Z
2023-03-27T03:18:21Z,42.805,6.029,13.3017,4.60078,2470.661,2023-3-27T05:21:07Z
2023-03-27T03:21:24Z,42.805,6.029,13.3015,4.60078,2470.637,2023-3-27T05:24:10Z
2023-03-27T03:24:27Z,42.805,6.029,13.3019,4.60078,2470.684,2023-3-27T05:27:13Z
2023-03-27T03:27:30Z,42.805,6.029,13.3016,4.60079,2470.619,2023-3-27T05:30:16Z
2023-03-27T03:30:33Z,42.805,6.029,13.3017,4.60079,2470.684,2023-3-27T05:33:19Z
2023-03-27T03:33:36Z,42.805,6.029,13.3015,4.60079,2470.661,2023-3-27T05:36:22Z
2023-03-27T03:36:39Z,42.805,6.029,13.3021,4.60079,2470.646,2023-3-27T05:39:26Z
2023-03-27T03:39:43Z,42.805,6.029,13.3019,4.60079,2470.624,2023-3-27T05:42:29Z
2023-03-27T03:42:46Z,42.805,6.029,13.3018,4.60078,2470.646,2023-3-27T05:45:32Z
2023-03-27T03:45:49Z,42.805,6.029,13.3016,4.60078,2470.637,2023-3-27T05:48:35Z
2023-03-27T03:48:52Z,42.805,6.029,13.3019,4.60078,2470.67,2023-3-27T05:51:38Z
2023-03-27T03:51:55Z,42.805,6.029,13.3019,4.60079,2470.661,2023-3-27T05:54:41Z
2023-03-27T03:54:58Z,42.805,6.029,13.3015,4.60078,2470.637,2023-3-27T05:57:44Z
2023-03-27T03:58:01Z,42.805,6.029,13.3013,4.60078,2470.637,2023-3-27T06:00:47Z
2023-03-27T04:01:04Z,42.805,6.029,13.3017,4.60079,2470.624,2023-3-27T06:03:50Z
2023-03-27T04:04:07Z,42.805,6.029,13.3020,4.60079,2470.624,2023-3-27T06:06:53Z
2023-03-27T04:07:10Z,42.805,6.029,13.3014,4.60078,2470.6,2023-3-27T06:09:56Z
2023-03-27T04:10:13Z,42.805,6.029,13.3016,4.60078,2470.624,2023-3-27T06:12:59Z
2023-03-27T04:13:16Z,42.805,6.029,13.3017,4.60078,2470.624,2023-3-27T06:16:03Z
2023-03-27T04:16:20Z,42.805,6.029,13.3017,4.60078,2470.6,2023-3-27T06:19:06Z
2023-03-27T04:19:23Z,42.805,6.029,13.3018,4.60078,2470.624,2023-3-27T06:22:09Z
2023-03-27T04:22:26Z,42.805,6.029,13.3016,4.60079,2470.624,2023-3-27T06:25:12Z
2023-03-27T04:25:29Z,42.805,6.029,13.3019,4.60078,2470.624,2023-3-27T06:28:15Z
2023-03-27T04:28:32Z,42.805,6.029,13.3020,4.60077,2470.624,2023-3-27T06:31:18Z
2023-03-27T04:31:35Z,42.805,6.029,13.3018,4.60078,2470.6,2023-3-27T06:34:21Z
2023-03-27T04:34:38Z,42.805,6.029,13.3015,4.60078,2470.624,2023-3-27T06:37:24Z
2023-03-27T04:37:41Z,42.805,6.029,13.3021,4.60078,2470.646,2023-3-27T06:40:28Z
2023-03-27T04:40:45Z,42.805,6.029,13.3018,4.60079,2470.624,2023-3-27T06:43:31Z
2023-03-27T04:43:48Z,42.805,6.029,13.3014,4.60078,2470.637,2023-3-27T06:46:34Z
2023-03-27T04:46:51Z,42.805,6.029,13.3016,4.60078,2470.624,2023-3-27T06:49:37Z
2023-03-27T04:49:54Z,42.805,6.029,13.3016,4.60078,2470.6,2023-3-27T06:52:40Z
2023-03-27T04:52:57Z,42.805,6.029,13.3018,4.60079,2470.624,2023-3-27T06:55:43Z
2023-03-27T04:56:00Z,42.805,6.029,13.3015,4.60078,2470.67,2023-3-27T06:58:46Z
2023-03-27T04:59:03Z,42.805,6.029,13.3019,4.60079,2470.646,2023-3-27T07:01:49Z
2023-03-27T05:02:06Z,42.805,6.029,13.3016,4.60079,2470.661,2023-3-27T07:04:52Z
2023-03-27T05:05:09Z,42.805,6.029,13.3017,4.60078,2470.6,2023-3-27T07:07:55Z
2023-03-27T05:08:12Z,42.805,6.029,13.3019,4.60079,2470.614,2023-3-27T07:10:58Z
2023-03-27T05:11:15Z,42.805,6.029,13.3016,4.60079,2470.6,2023-3-27T07:14:01Z
2023-03-27T05:14:18Z,42.805,6.029,13.3019,4.60079,2470.624,2023-3-27T07:17:05Z
2023-03-27T05:17:22Z,42.805,6.029,13.3019,4.60079,2470.6,2023-3-27T07:20:08Z
2023-03-27T05:20:25Z,42.805,6.029,13.3020,4.60078,2470.6,2023-3-27T07:23:11Z
2023-03-27T05:23:28Z,42.805,6.029,13.3019,4.60078,2470.624,2023-3-27T07:26:14Z
2023-03-27T05:26:31Z,42.805,6.029,13.3016,4.60079,2470.6,2023-3-27T07:29:17Z
2023-03-27T05:29:34Z,42.805,6.029,13.3019,4.60078,2470.6,2023-3-27T07:32:20Z
2023-03-27T05:32:37Z,42.805,6.029,13.3020,4.60078,2470.624,2023-3-27T07:35:23Z
2023-03-27T05:35:40Z,42.805,6.029,13.3019,4.60079,2470.646,2023-3-27T07:38:26Z
2023-03-27T05:38:43Z,42.805,6.029,13.3019,4.60078,2470.614,2023-3-27T07:41:29Z
2023-03-27T05:41:46Z,42.805,6.029,13.3023,4.60079,2470.637,2023-3-27T07:44:32Z
2023-03-27T05:44:49Z,42.805,6.029,13.3019,4.60079,2470.624,2023-3-27T07:47:35Z
2023-03-27T05:47:52Z,42.805,6.029,13.3016,4.60079,2470.6,2023-3-27T07:50:38Z
2023-03-27T05:50:55Z,42.805,6.029,13.3019,4.60079,2470.637,2023-3-27T07:53:42Z
2023-03-27T05:53:58Z,42.805,6.029,13.3018,4.60078,2470.6,2023-3-27T07:56:45Z
2023-03-27T05:57:02Z,42.805,6.029,13.3015,4.60079,2470.614,2023-3-27T07:59:48Z
2023-03-27T06:00:05Z,42.805,6.029,13.3021,4.60079,2470.577,2023-3-27T08:02:51Z
2023-03-27T06:03:08Z,42.805,6.029,13.3019,4.60079,2470.624,2023-3-27T08:05:54Z
2023-03-27T06:06:11Z,42.805,6.029,13.3021,4.60079,2470.577,2023-3-27T08:08:57Z
2023-03-27T06:09:14Z,42.805,6.029,13.3015,4.60079,2470.6,2023-3-27T08:12:00Z
2023-03-27T06:12:17Z,42.805,6.029,13.3018,4.60079,2470.614,2023-3-27T08:15:03Z
2023-03-27T06:15:20Z,42.805,6.029,13.3018,4.60079,2470.614,2023-3-27T08:18:06Z
2023-03-27T06:18:23Z,42.805,6.029,13.3014,4.60079,2470.624,2023-3-27T08:21:09Z
2023-03-27T06:21:26Z,42.805,6.029,13.3017,4.60079,2470.6,2023-3-27T08:24:12Z
2023-03-27T06:24:29Z,42.805,6.029,13.3019,4.60079,2470.6,2023-3-27T08:27:15Z
2023-03-27T06:27:32Z,42.805,6.029,13.3023,4.60079,2470.577,2023-3-27T08:30:19Z
2023-03-27T06:30:34Z,42.805,6.029,13.3015,4.60079,2470.6,2023-3-27T08:33:20Z
2023-03-27T06:33:37Z,42.805,6.029,13.3018,4.60079,2470.614,2023-3-27T08:36:23Z
2023-03-27T06:36:40Z,42.805,6.029,13.3019,4.60079,2470.6,2023-3-27T08:39:26Z
2023-03-27T06:39:43Z,42.805,6.029,13.3017,4.60080,2470.6,2023-3-27T08:42:29Z
2023-03-27T06:42:46Z,42.805,6.029,13.3019,4.60079,2470.6,2023-3-27T08:45:32Z
2023-03-27T06:45:49Z,42.805,6.029,13.3014,4.60079,2470.6,2023-3-27T08:48:35Z
2023-03-27T06:48:52Z,42.805,6.029,13.3021,4.60079,2470.6,2023-3-27T08:51:39Z
2023-03-27T06:51:55Z,42.805,6.029,13.3016,4.60079,2470.637,2023-3-27T08:54:42Z
2023-03-27T06:54:59Z,42.805,6.029,13.3016,4.60079,2470.624,2023-3-27T08:57:45Z
2023-03-27T06:58:02Z,42.805,6.029,13.3015,4.60079,2470.661,2023-3-27T09:00:48Z
2023-03-27T07:01:05Z,42.805,6.029,13.3019,4.60079,2470.624,2023-3-27T09:03:51Z
2023-03-27T07:04:08Z,42.805,6.029,13.3017,4.60079,2470.614,2023-3-27T09:06:54Z
2023-03-27T07:07:11Z,42.805,6.029,13.3019,4.60079,2470.624,2023-3-27T09:09:57Z
2023-03-27T07:10:14Z,42.805,6.029,13.3017,4.60079,2470.614,2023-3-27T09:13:00Z
2023-03-27T07:13:17Z,42.805,6.029,13.3019,4.60080,2470.637,2023-3-27T09:16:03Z
2023-03-27T07:16:20Z,42.805,6.029,13.3017,4.60079,2470.624,2023-3-27T09:19:06Z
2023-03-27T07:19:23Z,42.805,6.029,13.3023,4.60079,2470.624,2023-3-27T09:22:09Z
2023-03-27T07:22:26Z,42.805,6.029,13.3021,4.60079,2470.624,2023-3-27T09:25:12Z
2023-03-27T07:25:29Z,42.805,6.029,13.3021,4.60080,2470.624,2023-3-27T09:28:16Z
2023-03-27T07:28:32Z,42.805,6.029,13.3019,4.60079,2470.624,2023-3-27T09:31:19Z
2023-03-27T07:31:36Z,42.805,6.029,13.3015,4.60079,2470.61,2023-3-27T09:34:22Z
2023-03-27T07:34:39Z,42.805,6.029,13.3019,4.60080,2470.624,2023-3-27T09:37:25Z
2023-03-27T07:37:42Z,42.805,6.029,13.3020,4.60079,2470.637,2023-3-27T09:40:28Z
2023-03-27T07:40:45Z,42.805,6.029,13.3024,4.60079,2470.646,2023-3-27T09:43:31Z
2023-03-27T07:43:48Z,42.805,6.029,13.3019,4.60079,2470.646,2023-3-27T09:46:34Z
2023-03-27T07:46:51Z,42.805,6.029,13.3019,4.60079,2470.624,2023-3-27T09:49:37Z
2023-03-27T07:49:54Z,42.805,6.029,13.3017,4.60079,2470.67,2023-3-27T09:52:40Z
2023-03-27T07:52:57Z,42.805,6.029,13.3020,4.60080,2470.637,2023-3-27T09:55:43Z
2023-03-27T07:56:00Z,42.805,6.029,13.3020,4.60079,2470.646,2023-3-27T09:58:46Z
2023-03-27T07:59:03Z,42.805,6.029,13.3021,4.60079,2470.684,2023-3-27T10:01:49Z
2023-03-27T08:02:06Z,42.805,6.029,13.3020,4.60080,2470.646,2023-3-27T10:04:53Z
2023-03-27T08:05:09Z,42.805,6.029,13.3023,4.60079,2470.67,2023-3-27T10:07:56Z
2023-03-27T08:08:13Z,42.805,6.029,13.3018,4.60080,2470.67,2023-3-27T10:10:59Z
2023-03-27T08:11:16Z,42.805,6.029,13.3021,4.60079,2470.67,2023-3-27T10:14:02Z
2023-03-27T08:14:19Z,42.805,6.029,13.3021,4.60079,2470.646,2023-3-27T10:17:05Z
2023-03-27T08:17:22Z,42.805,6.029,13.3016,4.60079,2470.646,2023-3-27T10:20:08Z
2023-03-27T08:20:25Z,42.805,6.029,13.3018,4.60079,2470.67,2023-3-27T10:23:11Z
2023-03-27T08:23:28Z,42.805,6.029,13.3020,4.60079,2470.646,2023-3-27T10:26:14Z
2023-03-27T08:26:31Z,42.805,6.029,13.3022,4.60079,2470.684,2023-3-27T10:29:17Z
2023-03-27T08:29:34Z,42.805,6.029,13.3019,4.60079,2470.67,2023-3-27T10:32:20Z
2023-03-27T08:32:37Z,42.805,6.029,13.3021,4.60079,2470.684,2023-3-27T10:35:23Z
2023-03-27T08:35:40Z,42.805,6.029,13.3019,4.60079,2470.646,2023-3-27T10:38:26Z
2023-03-27T08:38:43Z,42.805,6.029,13.3018,4.60079,2470.661,2023-3-27T10:41:30Z
2023-03-27T08:41:46Z,42.805,6.029,13.3021,4.60079,2470.693,2023-3-27T10:44:33Z
2023-03-27T08:44:50Z,42.805,6.029,13.3021,4.60079,2470.67,2023-3-27T10:47:36Z
2023-03-27T08:47:53Z,42.805,6.029,13.3021,4.60080,2470.67,2023-3-27T10:50:39Z
2023-03-27T08:50:56Z,42.805,6.029,13.3017,4.60079,2470.684,2023-3-27T10:53:42Z
2023-03-27T08:53:59Z,42.805,6.029,13.3021,4.60080,2470.646,2023-3-27T10:56:45Z
2023-03-27T08:57:02Z,42.805,6.029,13.3020,4.60080,2470.693,2023-3-27T10:59:48Z
2023-03-27T09:00:05Z,42.805,6.029,13.3018,4.60079,2470.646,2023-3-27T11:02:51Z
2023-03-27T09:03:08Z,42.805,6.029,13.3016,4.60080,2470.693,2023-3-27T11:05:54Z
2023-03-27T09:06:11Z,42.805,6.029,13.3024,4.60081,2470.67,2023-3-27T11:08:57Z
2023-03-27T09:09:14Z,42.805,6.029,13.3018,4.60079,2470.693,2023-3-27T11:12:00Z
2023-03-27T09:12:17Z,42.805,6.029,13.3018,4.60079,2470.684,2023-3-27T11:15:04Z
2023-03-27T09:15:20Z,42.805,6.029,13.3019,4.60081,2470.693,2023-3-27T11:18:07Z
2023-03-27T09:18:23Z,42.805,6.029,13.3019,4.60079,2470.693,2023-3-27T11:21:10Z
2023-03-27T09:21:27Z,42.805,6.029,13.3020,4.60079,2470.707,2023-3-27T11:24:13Z
2023-03-27T09:24:30Z,42.805,6.029,13.3020,4.60079,2470.693,2023-3-27T11:27:16Z
2023-03-27T09:27:33Z,42.805,6.029,13.3017,4.60079,2470.67,2023-3-27T11:30:19Z
2023-03-27T09:30:36Z,42.805,6.029,13.3015,4.60080,2470.679,2023-3-27T11:33:22Z
2023-03-27T09:33:39Z,42.805,6.029,13.3020,4.60079,2470.693,2023-3-27T11:36:25Z
2023-03-27T09:36:42Z,42.805,6.029,13.3022,4.60078,2470.73,2023-3-27T11:39:28Z
2023-03-27T09:39:45Z,42.805,6.029,13.3017,4.60079,2470.693,2023-3-27T11:42:31Z
2023-03-27T09:42:48Z,42.805,6.029,13.3017,4.60078,2470.717,2023-3-27T11:45:34Z
2023-03-27T09:45:51Z,42.805,6.029,13.3016,4.60079,2470.707,2023-3-27T11:48:37Z
2023-03-27T09:48:54Z,42.805,6.029,13.3019,4.60079,2470.67,2023-3-27T11:51:41Z
2023-03-27T09:51:57Z,42.805,6.029,13.3020,4.60079,2470.693,2023-3-27T11:54:44Z
2023-03-27T09:55:01Z,42.805,6.029,13.3018,4.60078,2470.679,2023-3-27T11:57:47Z
2023-03-27T09:58:04Z,42.805,6.029,13.3015,4.60078,2470.67,2023-3-27T12:00:50Z
2023-03-27T10:01:07Z,42.805,6.029,13.3018,4.60078,2470.717,2023-3-27T12:03:53Z
2023-03-27T10:04:10Z,42.805,6.029,13.3019,4.60079,2470.693,2023-3-27T12:06:56Z
2023-03-27T10:07:13Z,42.805,6.029,13.3014,4.60078,2470.717,2023-3-27T12:09:59Z
2023-03-27T10:10:16Z,42.805,6.029,13.3021,4.60078,2470.67,2023-3-27T12:13:02Z
2023-03-27T10:13:19Z,42.805,6.029,13.3021,4.60079,2470.646,2023-3-27T12:16:05Z
2023-03-27T10:16:22Z,42.805,6.029,13.3018,4.60077,2470.73,2023-3-27T12:19:08Z
2023-03-27T10:19:25Z,42.805,6.029,13.3019,4.60077,2470.73,2023-3-27T12:22:11Z
2023-03-27T10:22:28Z,42.805,6.029,13.3017,4.60078,2470.717,2023-3-27T12:25:15Z
2023-03-27T10:25:31Z,42.805,6.029,13.3016,4.60077,2470.693,2023-3-27T12:28:18Z
2023-03-27T10:28:34Z,42.805,6.029,13.3018,4.60077,2470.693,2023-3-27T12:31:21Z
2023-03-27T10:31:38Z,42.805,6.029,13.3015,4.60077,2470.707,2023-3-27T12:34:24Z
2023-03-27T10:34:41Z,42.805,6.029,13.3017,4.60077,2470.684,2023-3-27T12:37:27Z
2023-03-27T10:37:44Z,42.805,6.029,13.3020,4.60078,2470.693,2023-3-27T12:40:30Z
2023-03-27T10:40:47Z,42.805,6.029,13.3019,4.60077,2470.679,2023-3-27T12:43:33Z
2023-03-27T10:43:50Z,42.805,6.029,13.3019,4.60077,2470.693,2023-3-27T12:46:36Z
2023-03-27T10:46:53Z,42.805,6.029,13.3020,4.60077,2470.73,2023-3-27T12:49:39Z
2023-03-27T10:49:56Z,42.805,6.029,13.3018,4.60077,2470.67,2023-3-27T12:52:42Z
2023-03-27T10:52:59Z,42.805,6.029,13.3020,4.60078,2470.73,2023-3-27T12:55:45Z
2023-03-27T10:56:02Z,42.805,6.029,13.3016,4.60078,2470.707,2023-3-27T12:58:48Z
2023-03-27T10:59:05Z,42.805,6.029,13.3019,4.60078,2470.707,2023-3-27T13:01:52Z
2023-03-27T11:02:08Z,42.805,6.029,13.3021,4.60077,2470.717,2023-3-27T13:04:55Z
2023-03-27T11:05:12Z,42.805,6.029,13.3018,4.60078,2470.693,2023-3-27T13:07:58Z
2023-03-27T11:08:15Z,42.805,6.029,13.3019,4.60078,2470.693,2023-3-27T13:11:01Z
2023-03-27T11:11:18Z,42.805,6.029,13.3018,4.60077,2470.67,2023-3-27T13:14:04Z
2023-03-27T11:14:21Z,42.805,6.029,13.3019,4.60078,2470.707,2023-3-27T13:17:07Z
2023-03-27T11:17:24Z,42.805,6.029,13.3020,4.60078,2470.693,2023-3-27T13:20:10Z
2023-03-27T11:20:27Z,42.805,6.029,13.3018,4.60078,2470.67,2023-3-27T13:23:13Z
2023-03-27T11:23:30Z,42.805,6.029,13.3019,4.60078,2470.684,2023-3-27T13:26:16Z
2023-03-27T11:26:33Z,42.805,6.029,13.3019,4.60079,2470.693,2023-3-27T13:29:19Z
2023-03-27T11:29:36Z,42.805,6.029,13.3015,4.60078,2470.717,2023-3-27T13:32:22Z
2023-03-27T11:32:39Z,42.805,6.029,13.3021,4.60078,2470.693,2023-3-27T13:35:26Z
2023-03-27T11:35:42Z,42.805,6.029,13.3015,4.60079,2470.684,2023-3-27T13:38:29Z
2023-03-27T11:38:45Z,42.805,6.029,13.3018,4.60078,2470.707,2023-3-27T13:41:32Z
2023-03-27T11:41:49Z,42.805,6.029,13.3014,4.60079,2470.693,2023-3-27T13:44:35Z
2023-03-27T11:44:52Z,42.805,6.029,13.3017,4.60079,2470.684,2023-3-27T13:47:38Z
2023-03-27T11:47:55Z,42.805,6.029,13.3021,4.60079,2470.707,2023-3-27T13:50:41Z
2023-03-27T11:50:58Z,42.805,6.029,13.3019,4.60079,2470.684,2023-3-27T13:53:44Z
2023-03-27T11:54:01Z,42.805,6.029,13.3019,4.60079,2470.67,2023-3-27T13:56:47Z
2023-03-27T11:57:04Z,42.805,6.029,13.3016,4.60079,2470.717,2023-3-27T13:59:50Z
2023-03-27T12:00:07Z,42.805,6.029,13.3015,4.60079,2470.646,2023-3-27T14:02:53Z
2023-03-27T12:03:10Z,42.805,6.029,13.3017,4.60081,2470.67,2023-3-27T14:05:56Z
2023-03-27T12:06:13Z,42.805,6.029,13.3020,4.60081,2470.637,2023-3-27T14:08:59Z
2023-03-27T12:09:16Z,42.805,6.029,13.3019,4.60081,2470.707,2023-3-27T14:12:03Z
2023-03-27T12:12:19Z,42.805,6.029,13.3020,4.60080,2470.67,2023-3-27T14:15:06Z
2023-03-27T12:15:22Z,42.805,6.029,13.3019,4.60080,2470.661,2023-3-27T14:18:09Z
2023-03-27T12:18:26Z,42.805,6.029,13.3020,4.60080,2470.637,2023-3-27T14:21:12Z
2023-03-27T12:21:29Z,42.805,6.029,13.3021,4.60080,2470.67,2023-3-27T14:24:15Z
2023-03-27T12:24:32Z,42.805,6.029,13.3017,4.60081,2470.661,2023-3-27T14:27:18Z
2023-03-27T12:27:35Z,42.805,6.029,13.3018,4.60080,2470.637,2023-3-27T14:30:21Z
2023-03-27T12:30:38Z,42.805,6.029,13.3020,4.60081,2470.646,2023-3-27T14:33:25Z
2023-03-27T12:33:41Z,42.805,6.029,13.3019,4.60079,2470.646,2023-3-27T14:36:28Z
2023-03-27T12:36:45Z,42.805,6.029,13.3017,4.60080,2470.67,2023-3-27T14:39:31Z
2023-03-27T12:39:48Z,42.805,6.029,13.3019,4.60079,2470.646,2023-3-27T14:42:34Z
2023-03-27T12:42:51Z,42.805,6.029,13.3024,4.60079,2470.624,2023-3-27T14:45:37Z
2023-03-27T12:45:54Z,42.805,6.029,13.3019,4.60080,2470.661,2023-3-27T14:48:40Z
2023-03-27T12:48:57Z,42.805,6.029,13.3019,4.60080,2470.661,2023-3-27T14:51:43Z
2023-03-27T12:52:00Z,42.805,6.029,13.3022,4.60079,2470.624,2023-3-27T14:54:46Z
2023-03-27T12:55:03Z,42.805,6.029,13.3021,4.60080,2470.646,2023-3-27T14:57:49Z
2023-03-27T12:58:06Z,42.805,6.029,13.3020,4.60080,2470.646,2023-3-27T15:00:52Z
2023-03-27T13:01:09Z,42.805,6.029,13.3021,4.60079,2470.661,2023-3-27T15:03:56Z
2023-03-27T13:04:12Z,42.805,6.029,13.3021,4.60080,2470.624,2023-3-27T15:06:59Z
2023-03-27T13:07:15Z,42.805,6.029,13.3021,4.60080,2470.624,2023-3-27T15:10:02Z
2023-03-27T13:10:18Z,42.805,6.029,13.3023,4.60079,2470.637,2023-3-27T15:13:05Z
2023-03-27T13:13:22Z,42.805,6.029,13.3019,4.60080,2470.661,2023-3-27T15:16:08Z
2023-03-27T13:16:25Z,42.805,6.029,13.3023,4.60081,2470.6,2023-3-27T15:19:11Z
2023-03-27T13:19:28Z,42.805,6.029,13.3021,4.60080,2470.646,2023-3-27T15:22:14Z
2023-03-27T13:22:31Z,42.805,6.029,13.3020,4.60080,2470.637,2023-3-27T15:25:17Z
2023-03-27T13:25:34Z,42.805,6.029,13.3024,4.60080,2470.624,2023-3-27T15:28:20Z
2023-03-27T13:28:37Z,42.805,6.029,13.3018,4.60080,2470.646,2023-3-27T15:31:23Z
2023-03-27T13:31:40Z,42.805,6.029,13.3019,4.60081,2470.624,2023-3-27T15:34:26Z
2023-03-27T13:34:43Z,42.805,6.029,13.3016,4.60081,2470.624,2023-3-27T15:37:30Z
2023-03-27T13:37:46Z,42.805,6.029,13.3024,4.60081,2470.624,2023-3-27T15:40:33Z
2023-03-27T13:40:49Z,42.805,6.029,13.3018,4.60081,2470.646,2023-3-27T15:43:36Z
2023-03-27T13:43:52Z,42.805,6.029,13.3024,4.60081,2470.661,2023-3-27T15:46:39Z
2023-03-27T13:46:56Z,42.805,6.029,13.3018,4.60080,2470.624,2023-3-27T15:49:42Z
2023-03-27T13:49:59Z,42.805,6.029,13.3021,4.60081,2470.661,2023-3-27T15:52:45Z
2023-03-27T13:53:02Z,42.805,6.029,13.3020,4.60081,2470.646,2023-3-27T15:55:48Z
2023-03-27T13:56:05Z,42.805,6.029,13.3021,4.60081,2470.624,2023-3-27T15:58:51Z
2023-03-27T13:59:08Z,42.805,6.029,13.3019,4.60079,2470.614,2023-3-27T16:01:54Z
2023-03-27T14:02:11Z,42.805,6.029,13.3016,4.60080,2470.661,2023-3-27T16:04:57Z
2023-03-27T14:05:14Z,42.805,6.029,13.3018,4.60079,2470.614,2023-3-27T16:08:00Z
2023-03-27T14:08:17Z,42.805,6.029,13.3017,4.60080,2470.637,2023-3-27T16:11:03Z
2023-03-27T14:11:20Z,42.805,6.029,13.3021,4.60079,2470.637,2023-3-27T16:14:07Z
2023-03-27T14:14:23Z,42.805,6.029,13.3021,4.60080,2470.6,2023-3-27T16:17:10Z
2023-03-27T14:17:26Z,42.805,6.029,13.3019,4.60080,2470.6,2023-3-27T16:20:13Z
2023-03-27T14:20:30Z,42.805,6.029,13.3016,4.60081,2470.6,2023-3-27T16:23:16Z
2023-03-27T14:23:33Z,42.805,6.029,13.3020,4.60081,2470.614,2023-3-27T16:26:19Z
2023-03-27T14:26:36Z,42.805,6.029,13.3021,4.60080,2470.624,2023-3-27T16:29:22Z
2023-03-27T14:29:39Z,42.805,6.029,13.3021,4.60080,2470.6,2023-3-27T16:32:25Z
2023-03-27T14:32:42Z,42.805,6.029,13.3020,4.60080,2470.6,2023-3-27T16:35:28Z
2023-03-27T14:35:45Z,42.805,6.029,13.3022,4.60079,2470.637,2023-3-27T16:38:31Z
2023-03-27T14:38:48Z,42.805,6.029,13.3022,4.60081,2470.577,2023-3-27T16:41:34Z
2023-03-27T14:41:51Z,42.805,6.029,13.3019,4.60079,2470.614,2023-3-27T16:44:37Z
2023-03-27T14:44:54Z,42.805,6.029,13.3022,4.60079,2470.637,2023-3-27T16:47:41Z
2023-03-27T14:47:57Z,42.805,6.029,13.3018,4.60079,2470.591,2023-3-27T16:50:44Z
2023-03-27T14:51:00Z,42.805,6.029,13.3021,4.60080,2470.577,2023-3-27T16:53:47Z
2023-03-27T14:54:03Z,42.805,6.029,13.3017,4.60079,2470.6,2023-3-27T16:56:50Z
2023-03-27T14:57:07Z,42.805,6.029,13.3021,4.60079,2470.614,2023-3-27T16:59:53Z
2023-03-27T15:00:10Z,42.805,6.029,13.3022,4.60079,2470.6,2023-3-27T17:02:56Z
2023-03-27T15:03:13Z,42.805,6.029,13.3019,4.60079,2470.6,2023-3-27T17:05:59Z
2023-03-27T15:06:16Z,42.805,6.029,13.3019,4.60079,2470.624,2023-3-27T17:09:02Z
2023-03-27T15:09:19Z,42.805,6.029,13.3020,4.60079,2470.591,2023-3-27T17:12:05Z
2023-03-27T15:12:22Z,42.805,6.029,13.3019,4.60080,2470.624,2023-3-27T17:15:08Z